{"data":{"norad_id":62800,"epoch":"2026-09-22T21:26:40.979040Z","epoch_age_seconds":111263,"freshness":"FRESH","line1":"1 62800U 25016R   26265.89352985  .00000064  00000+0  81005-4 0  9997","line2":"2 62800  88.9669  73.5924 0013975 230.0510 129.9415 13.51024195 85601","mean_motion":13.51024195,"eccentricity":0.0013975,"inclination_deg":88.9669,"raan_deg":73.5924,"arg_perigee_deg":230.051,"mean_anomaly_deg":129.9415,"bstar":8.1005e-5,"rev_number":8560,"period_min":106.58580396482,"perigee_km":1058.0860129585,"apogee_km":1078.8993429083,"semimajor_km":7446.6296779334,"source":"CELESTRAK","updated_at":"2026-09-23T09:00:21.637381Z"}}